Погода в Измайлово

Россия / Ульяновская область     53°43′15″N   47°14′41″E
темп.,
°C
ветер,
м/с
пор.,
м/с
влажн.,
%
обл.,
%
осадки,
мм/ч
давл.,
гПа
погр.,
м
16 мая, вс
вс1601:00+19ю4154994 0.0 1016317
04:00+17ююв4125797 0.0 1016212
07:00+18ю41356100 0.0 1016284
10:00+24ю51040100 0.0 1017536
13:00+28ю692886 0.0 10171980
16:00+28ююз6103077 0.0 10162189
19:00+25ю364541 0.0 1016173
22:00+19ююз1257100 0.0 101612
17 мая, пн
пн1701:00+18ю115973 0.0 101711
04:00+16ю226351 0.0 101713
07:00+19ююз265985 0.0 1017166
10:00+26ююз343822 0.0 1018475
13:00+29ююз232925 0.0 10171703
16:00+30ю4425100 0.0 10173188
19:00+25ю354378 0.0 1017119
22:00+20в124589 0.0 101811
18 мая, вт
вт1801:00+17вюв225577 0.0 101812
04:00+17вюв115277 0.0 101811
07:00+19в245349 0.0 101895
10:00+26вюв473210 0.0 1017638
13:00+29вюв57245 0.0 10172072
16:00+29вюв57265 0.0 10163017
19:00+25вюв36455 0.0 1016161
22:00+19в310455 0.0 1016151
19 мая, ср
ср1901:00+17в38415 0.0 1016126
04:00+16вюв37505 0.0 1016103
07:00+18вюв311651 0.0 1016297
10:00+24вюв58495 0.0 1015601
13:00+28вюв79385 0.0 10141808
16:00+29вюв683577 0.0 10132691
19:00+22в3653100 0.0 1012130
22:00+19ююз357463 0.8 1013149
20 мая, чт
чт2001:00+17юв3987100 1.9 1012276
04:00+16ююв269384 2.4 1013151
07:00+16ююв51187100 0.0 1014682
10:00+19ю61058100 0.0 10141411
13:00+21ю71044100 0.0 10142249
16:00+21ю7104171 0.0 10142735
19:00+17ююз5106230 0.0 10151327
22:00+14ююз49742 0.0 1016371